Мао

Чад     14°07′04″N   15°18′38″E
темп.,
°C
ветер,
м/с
пор.,
м/с
влажн.,
%
обл.,
%
осадки,
мм/ч
давл.,
гПа
погр.,
м
9 августа, вт
вт901:00+26ююз3462100 0.0 1011165
04:00+26юз3460100 0.1 1010142
07:00+26зюз4660100 0.3 1012219
10:00+30юз5545100 0.5 1012584
13:00+34ююз323936 0.5 10101457
16:00+35юз43385 0.0 10071896
19:00+31ююз66485 0.1 1009365
22:00+30юз46485 0.0 1011326
10 августа, ср
ср1001:00+29зюз4751100 0.0 1009230
04:00+29юз4850100 0.0 1008238
07:00+29з4855100 0.0 1009321
10:00+33зюз444161 0.0 1010907
13:00+36з3333100 0.0 10082151
16:00+37з333258 0.0 10062166
19:00+33юз664010 0.1 1006524
22:00+32ююз464370 0.0 1007246
11 августа, чт
чт1101:00+31юз4744100 0.1 1006251
04:00+30ююз71053100 0.1 1007533
07:00+27юз8107359 0.1 1009469
10:00+28зюз91163100 0.0 1009665
13:00+32юз995057 0.0 10081127
16:00+32юз88505 0.0 10071391
19:00+29юз78635 0.3 1008557
22:00+28юз71067100 0.4 1009538
12 августа, пт
пт1201:00+27зюз81170100 0.4 1008489
04:00+26зюз6107587 0.0 1009588
07:00+26юз7107536 0.0 1010601
10:00+30зюз91055100 0.0 1010824
13:00+31юз875141 0.0 10101139
16:00+32юз784679 0.0 10081335
19:00+30ююз67535 0.0 1009648
22:00+28юз59603 0.0 1010569
13 августа, сб
сб1301:00+28юз71163100 0.0 1009632
04:00+27ююз61170100 0.0 1009673
07:00+26юв8875100 0.1 1012654
10:00+26ююз8974100 0.7 1012413
13:00+29зюз91058100 0.7 1009510
16:00+30з7852100 0.0 1006621
19:00+28юз566297 0.0 1008513
22:00+26ююз4569100 0.1 1009222